Weather History for Sanford, FL

Change the Weather History Date:

Sunday, January 6, 2013

  Actual Average Record
Temperature  
Mean Temperature 69 °F -  
Max Temperature 79 °F 70 °F 84 °F (1960)
Min Temperature 59 °F 49 °F 32 °F (1999)
Cooling Degree Days 4    
Growing Degree Days 19 (Base 50)    
Moisture  
Dew Point 59 °F    
Average Humidity 81    
Maximum Humidity 94    
Minimum Humidity 56    
Precipitation  
Precipitation 0.00 in - - ()
Sea Level Pressure  
Sea Level Pressure 30.15 in    
Wind  
Wind Speed 4 mph (NE)    
Max Wind Speed 12 mph    
Max Gust Speed -    
Visibility 10 miles    
Events Rain    
Averages and records for this station are not official NWS values.
T = Trace of Precipitation, MM = Missing Value Source: NWS Daily Summary

Daily Weather History Graph

Daily Weather History Graph

Search for Another Location

Airport:

Trip Planner

Search our weather history database for the weather conditions in past years. The results will help you decide how hot, cold, wet, or windy it might be!

Date:

Astronomy

Jan. 06, 2013 Rise Set
Actual Time 7:19 AM EST 5:43 PM EST
Civil Twilight 6:53 AM EST 6:08 PM EST
Nautical Twilight 6:24 AM EST 6:38 PM EST
Astronomical Twilight 5:55 AM EST 7:06 PM EST
Moon 1:42 AM EST (1/6) 1:00 PM EST (1/6)
Length of Visible Light 11h 15m
Length of Day
10h 23m
Waning Crescent, 33% of the Moon is Illuminated
Jan 6
Waning Crescent
Jan 11
New
Jan 18
First Quarter
Jan 26
Full
Feb 3
Last Quarter

Hourly Weather History & Observations

Time (EST) Temp. Dew Point Humidity Pressure Visibility Wind Dir Wind Speed Gust Speed Precip Events Conditions
12:53 AM 61.0 °F 55.9 °F 83% 30.21 in 10.0 mi North 5.8 mph - N/A   Overcast
1:53 AM 61.0 °F 55.9 °F 83% 30.19 in 10.0 mi Calm Calm - N/A   Overcast
2:53 AM 60.1 °F 55.9 °F 86% 30.19 in 10.0 mi NNW 4.6 mph - N/A   Overcast
3:10 AM 60.8 °F 55.4 °F 82% 30.19 in 10.0 mi NNW 3.5 mph - N/A   Overcast
3:53 AM 60.1 °F 55.9 °F 86% 30.18 in 7.0 mi North 5.8 mph - 0.00 in Rain Light Rain
4:53 AM 59.0 °F 55.9 °F 90% 30.17 in 10.0 mi Calm Calm - 0.00 in   Overcast
5:06 AM 60.8 °F 55.4 °F 82% 30.17 in 10.0 mi Calm Calm - N/A   Overcast
5:53 AM 60.1 °F 57.0 °F 90% 30.17 in 10.0 mi Calm Calm - N/A   Overcast
6:53 AM 60.1 °F 57.0 °F 90% 30.17 in 10.0 mi NNE 3.5 mph - N/A   Overcast
7:27 AM 60.8 °F 57.2 °F 88% 30.18 in 10.0 mi Calm Calm - N/A   Overcast
7:53 AM 60.1 °F 57.0 °F 90% 30.18 in 7.0 mi ESE 4.6 mph - N/A   Overcast
8:53 AM 63.0 °F 60.1 °F 90% 30.18 in 7.0 mi SSE 4.6 mph - N/A   Mostly Cloudy
9:08 AM 64.4 °F 60.8 °F 88% 30.18 in 10.0 mi SE 5.8 mph - N/A   Scattered Clouds
9:53 AM 66.9 °F 61.0 °F 81% 30.19 in 10.0 mi Calm Calm - N/A   Clear
10:53 AM 72.0 °F 63.0 °F 73% 30.18 in 10.0 mi South 3.5 mph - N/A   Clear
11:53 AM 75.9 °F 63.0 °F 64% 30.15 in 10.0 mi Variable 5.8 mph - N/A   Clear
12:53 PM 78.1 °F 61.0 °F 56% 30.12 in 10.0 mi South 6.9 mph - N/A   Clear
1:53 PM 79.0 °F 62.1 °F 56% 30.09 in 10.0 mi South 8.1 mph - N/A   Mostly Cloudy
2:53 PM 78.1 °F 62.1 °F 58% 30.08 in 10.0 mi South 6.9 mph - N/A   Partly Cloudy
3:53 PM 78.1 °F 62.1 °F 58% 30.07 in 10.0 mi Calm Calm - N/A   Clear
4:53 PM 77.0 °F 63.0 °F 62% 30.08 in 10.0 mi SSW 3.5 mph - N/A   Partly Cloudy
5:53 PM 75.0 °F 64.0 °F 69% 30.09 in 10.0 mi NNW 4.6 mph - N/A   Mostly Cloudy
6:53 PM 69.1 °F 64.9 °F 87% 30.12 in 10.0 mi NNE 6.9 mph - 0.00 in   Overcast
7:53 PM 64.0 °F 62.1 °F 93% 30.13 in 10.0 mi ENE 6.9 mph - N/A   Partly Cloudy
8:07 PM 64.4 °F 60.8 °F 88% 30.14 in 10.0 mi NE 8.1 mph - N/A   Scattered Clouds
8:18 PM 62.6 °F 60.8 °F 94% 30.14 in 10.0 mi NE 10.4 mph - N/A   Mostly Cloudy
8:53 PM 62.1 °F 59.0 °F 90% 30.15 in 10.0 mi NNE 9.2 mph - N/A   Overcast
9:53 PM 61.0 °F 57.9 °F 90% 30.16 in 9.0 mi ENE 4.6 mph - N/A   Overcast
10:21 PM 60.8 °F 57.2 °F 88% 30.17 in 7.0 mi North 8.1 mph - N/A   Overcast
10:50 PM 60.8 °F 57.2 °F 88% 30.17 in 10.0 mi North 8.1 mph - N/A   Overcast
10:53 PM 61.0 °F 57.9 °F 90% 30.17 in 10.0 mi North 8.1 mph - N/A   Overcast
11:53 PM 60.1 °F 57.0 °F 90% 30.16 in 8.0 mi North 11.5 mph - 0.00 in Rain Light Rain